Location: Unspecified
(0.0000°N, 0.0000°E)
Time: 20:47:08
(UTC+00:00)

DMSP 5D-2 F13 DEB - Pass Details

Date: 09 March 2026
Orbit: 780 x 797 km, 98.7° (Epoch: 11 April)

Event Time Altitude Azimuth Distance (km) Brightness Sun altitude
Rises 18:38:16 0° 153° (SSE) 3,264 ? -6.9°
Reaches altitude 10° 18:40:44 10° 144° (SE) 2,335 ? -7.5°
Maximum altitude 18:45:29 38° 77° (ENE) 1,186 ? -8.7°
Drops below altitude 10° 18:50:13 10° 10° (N) 2,335 ? -9.9°
Sets 18:52:40 0° 3° (N) 3,263 ? -10.5°
